Location: Broletto
(44.6000°N, 10.5833°E)
Time: 07:49:08
(UTC+00:00)

Cosmos 2026 Rocket - Pass Details

Date: 18 April 2021
Orbit: 938 x 1002 km, 82.9° (Epoch: 06 May)

Event Time Altitude Azimuth Distance (km) Brightness Sun altitude
Rises 19:41:37 0° 349° (N) 3,611 7.7 -16.1°
Reaches altitude 10° 19:44:07 10° 348° (NNW) 2,664 7.0 -16.4°
Maximum altitude 19:50:09 70° 266° (W) 1,001 4.2 -17.3°
Drops below altitude 10° 19:56:12 10° 183° (S) 2,672 6.0 -18.2°
Enters shadow 19:56:30 - 183° (S) 2,783 6.1 -18.2°
